This is the latest recevied weather packets stored in our database for station/object F4IVW-13. If no packets are shown the sender has not sent any weather packets the latest 10 day(s).
| Time | Temp. | Humidity | Pressure | Rain* | Wind** | Luminosity | Snow |
|---|---|---|---|---|---|---|---|
| 1777654534 | 26.11° C | 99% | 1019.2 hPa | 0 mm | - | 0 W/m² | - |
| 1777654209 | 25.56° C | 99% | 1019.1 hPa | 0 mm | - | 0 W/m² | - |
| 1777652936 | 25.56° C | 99% | 1019.2 hPa | 0 mm | - | 1 W/m² | - |
| 1777652300 | 25° C | 99% | 1019.3 hPa | 0 mm | - | 1 W/m² | - |
| 1777651983 | 25° C | 99% | 1019.3 hPa | 0 mm | - | 1 W/m² | - |
| 1777651667 | 25° C | 99% | 1019.4 hPa | 0 mm | - | 1 W/m² | - |
| 1777650402 | 25.56° C | 99% | 1019.5 hPa | 0 mm | - | 1 W/m² | - |
| 1777649758 | 24.44° C | 99% | 1019.5 hPa | 0 mm | - | 3 W/m² | - |
| 1777649446 | 24.44° C | 99% | 1019.6 hPa | 0 mm | - | 3 W/m² | - |
| 1777648806 | 24.44° C | 99% | 1019.7 hPa | 0 mm | - | 2 W/m² | - |
| 1777648167 | 24.44° C | 99% | 1019.7 hPa | 0 mm | - | 2 W/m² | - |
| 1777647530 | 24.44° C | 99% | 1019.7 hPa | 0 mm | - | 2 W/m² | - |
| 1777646906 | 24.44° C | 99% | 1019.8 hPa | 0 mm | - | 2 W/m² | - |
| 1777646575 | 24.44° C | 99% | 1019.9 hPa | 0 mm | - | 2 W/m² | - |
| 1777646256 | 24.44° C | 99% | 1020 hPa | 0 mm | - | 2 W/m² | - |
| 1777645944 | 24.44° C | 99% | 1020 hPa | 0 mm | - | 2 W/m² | - |
| 1777645620 | 23.33° C | 99% | 1020 hPa | 0 mm | - | 3 W/m² | - |
| 1777645300 | 22.78° C | 99% | 1020.1 hPa | 0 mm | - | 6 W/m² | - |
| 1777644995 | 23.33° C | 99% | 1020.1 hPa | 0 mm | - | 5 W/m² | - |
| 1777644666 | 23.33° C | 99% | 1020.2 hPa | 0 mm | - | 8 W/m² | - |
| 1777644030 | 23.33° C | 99% | 1020.3 hPa | 0 mm | - | 41 W/m² | - |
| 1777643716 | 22.78° C | 99% | 1020.3 hPa | 0 mm | - | 57 W/m² | - |
| 1777643398 | 23.33° C | 99% | 1020.4 hPa | 0 mm | - | 22 W/m² | - |
| 1777643077 | 23.33° C | 99% | 1020.4 hPa | 0 mm | - | 62 W/m² | - |
| 1777642769 | 23.33° C | 99% | 1020.5 hPa | 0 mm | - | 67 W/m² | - |
* Rain latest hour (hover to see other rain measurements)
** Current wind speed in m/s (hover to see current wind gust speed)